Location: Владивосток
(43.1151°N, 131.8856°E)
Time: 01:44:39
(UTC+10:00)

FO-29 - Pass Details

Date: 03 May 2024
Orbit: 801 x 1320 km, 98.6° (Epoch: 19 May)

Event Time Altitude Azimuth Distance (km) Brightness Sun altitude
Rises 02:02:44 0° 20° (NNE) 4,303 14.0 -30.0°
Reaches altitude 10° 02:05:46 10° 29° (NNE) 3,350 13.2 -29.8°
Maximum altitude 02:12:54 36° 94° (E) 1,951 11.1 -29.4°
Enters shadow 02:15:33 29° 130° (SE) 2,186 11.1 -29.3°
